National Weather Service Hourly Weather Roundup
NOAA NWS Hourly Roundups by Site
NOAA NWS Hourly Roundups by Site
Regional Weather Roundup for Sacramento, CA

To Select Another Site Choose from List

Select Site:  

000
ASUS46 KSTO 211415
RWRCA

NORTHERN AND CENTRAL CA REGIONAL WEATHER ROUNDUP
NATIONAL WEATHER SERVICE SACRAMENTO CA
700 AM PDT SUN OCT 21 2018

NOTE: FAIR INDICATES FEW OR NO CLOUDS BELOW 12,000 FEET WITH NO
SIGNIFICANT WEATHER AND/OR OBSTRUCTIONS TO VISIBILITY.

CAZ001-003-211500-
NORTHWEST AREA

CITY           SKY/WX    TMP DP  RH WIND       PRES   REMARKS
CRESCENT CITY  CLOUDY    48  46  93 NE3       30.01S
UKIAH          CLEAR     42  39  89 CALM      29.98S
$$

CAZ006-505>513-211500-
BAY AREA

CITY           SKY/WX    TMP DP  RH WIND       PRES   REMARKS
SANTA ROSA     FOG       49  49 100 CALM      29.97S VSB 1/2
SAN RAFAEL     N/A       50  MM  MM MISG
NAPA           FOG       49  48  97 CALM      29.98S VSB 1/2
CONCORD        PTCLDY    48  43  82 CALM      29.97S
OAKLAND CITY   N/A       54  MM  MM MISG
OAKLAND        CLOUDY    54  52  93 CALM      29.98S
SAN FRAN CITY  N/A       53  MM  95 MISG
SAN FRAN ARPT  CLOUDY    52  49  89 SW6       29.98R
LIVERMORE      CLEAR     46  40  79 E3        29.97S
HAYWARD        CLOUDY    54  50  86 NE6       29.98S FOG
REDWOOD CITY   N/A       54  MM  91 MISG
MOFFETT ARPT   CLOUDY    56  53  90 CALM      29.99R
SAN JOSE ARPT  CLOUDY    56  53  90 N5        29.98S FOG
$$
CAZ034-037-514>518-211500-
CENTRAL COAST

CITY           SKY/WX    TMP DP  RH WIND       PRES   REMARKS
WATSONVILLE    FOG       49  49 100 CALM      29.97R VSB 1/4
SALINAS        FOG       51  51 100 CALM      29.96R VSB 1/4
MONTEREY       FOG       49  47  93 CALM      29.97R VSB 1/2
SAN LUIS OBISP PTCLDY    46  43  89 CALM      29.91S
SANTA MARIA    CLEAR     50  46  86 SE5       29.91S
$$
CAZ015-016-211500-
NORTHERN SACRAMENTO VALLEY

CITY           SKY/WX    TMP DP  RH WIND       PRES   REMARKS
REDDING        CLEAR     46  37  71 CALM      29.97S
RED BLUFF      CLEAR     50  35  56 N6        29.97S
OROVILLE       CLEAR     50  44  80 W3        29.97S
$$
CAZ016>018-211500-
SOUTHERN SACRAMENTO VALLEY

CITY           SKY/WX    TMP DP  RH WIND       PRES   REMARKS
AUBURN         CLEAR     59  30  33 E8        29.98S
BEALE AFB      CLEAR     47  41  80 CALM      29.94S
LINCOLN        FAIR      46  39  76 CALM      29.95R
MARYSVILLE     CLEAR     46  41  82 CALM      29.97R
SAC INTL ARPT  CLEAR     45  44  97 N3        29.95S
MATHER AIRPORT CLEAR     46  39  76 CALM      29.94S
DOWNTOWN SAC   N/A       50  MM  MM MISG
SAC EXEC ARPT  CLEAR     51  49  92 CALM      29.95S
VACAVILLE      CLEAR     46  39  76 SW3       29.97R
TRAVIS AFB     CLEAR     49  46  89 SW7       29.96S
$$
CAZ019>021-211500-
SAN JOAQUIN VALLEY

CITY           SKY/WX    TMP DP  RH WIND       PRES   REMARKS
STOCKTON       CLEAR     51  48  89 NW5       29.95R
MODESTO        CLEAR     53  48  83 NW6       29.93S
MERCED         CLEAR     47  41  80 CALM      29.92S HAZE
LEMOORE        CLEAR     49  33  54 CALM      29.94R
FRESNO         PTCLDY    55  42  61 CALM      29.93R
HANFORD        CLEAR     50  46  86 CALM      29.94S FOG
PORTERVILLE    CLEAR     52  39  61 CALM      29.95R
BAKERSFIELD    PTCLDY    57  36  45 SE6       29.95R
$$
CAZ011-012-071-211500-
NORTHERN MOUNTAINS

CITY           SKY/WX    TMP DP  RH WIND       PRES   REMARKS
YREKA          CLEAR     34  21  59 CALM      30.07R
MOUNT SHASTA   CLEAR     35  25  66 CALM      30.06S
ALTURAS        PTCLDY    25  21  85 CALM      30.11S
$$
CAZ011-012-071-211500-
SIERRA NEVADA MTNS

CITY           SKY/WX    TMP DP  RH WIND       PRES   REMARKS
BLUE CANYON    CLEAR     54  23  30 NE3       30.14S
TRUCKEE        CLEAR     23  19  86 CALM      30.19S
TAHOE VLY ARPT CLEAR     27  22  81 CALM      30.18S
MAMMOTH LAKES  FAIR      20  13  72 N3        30.21S
$$



 

View Past Reports for Sacramento, CA.

Products Courtesy of NOAA-NWS
NWS Information Parsing Script by Ken True at Saratoga Weather - Script by SE Lincoln Weather.

powered by Cumulus v1.9.3 (1059)
Ambient Weather VWS v14.00
Top Contact Website Map Copyright © 2007 - 2018 Foresthillweather.com Never base important decisions on this or any weather information obtained from the Internet